Home > Weather > Augusta > Past weeks

Flag for USA Past Weather in Augusta, Georgia, USA — Yesterday and Last 2 Weeks

Now
73 °F

Low clouds.


Feels Like: 71 °F
Forecast: 72 / 90 °F
Wind: 5 mph from South

Location: Daniel Field

Current Time: Jul 1, 2016 at 6:00:43 AM

Latest Report: Jul 1, 2016 at 5:00 AM


Visibility: 10 mi

Pressure: 30.01 "Hg

Humidity: 90%

Dew Point: 70 °F

Location of AugustaLocation

Past Weather in Augusta — Graph

°F

Augusta Temperature Yesterday

Maximum temperature yesterday: 93 °F (at 3:53 PM)
Minimum temperature yesterday: 73 °F (at 4:53 AM)
Average temperature yesterday: 81 °F

High & Low Weather Summary for the Past Weeks

 TemperatureHumidityPressure
High100 °F (Jun 17, 1:53 PM)91% (Jun 28, 11:53 PM)30.34 "Hg (Jun 28, 11:53 PM)
Low66 °F (Jun 20, 6:53 AM)29% (Jun 23, 2:53 PM)29.71 "Hg (Jun 17, 4:53 PM)
Average83 °F58%30.03 "Hg
* Reported Jun 16 5:53 AM — Jul 1 5:00 AM, Augusta, Weather by CustomWeather, © 2016

Note: Actual official high and low records may vary slightly from our data, if they occured in-between our weather recording intervals... More about our weather records

Advertising

Augusta Weather History for the Previous 24 Hours

Scroll right to see more
 ConditionsComfort  
Time TempWeatherWind HumidityBarometerVisibility
5:00 AM
Fri, Jul 1
73 °FLow clouds.5 mph90%30.01 "Hg10 mi
4:01 AM74 °FPartly cloudy.5 mph88%30.01 "Hg10 mi
2:53 AM75 °FPassing clouds.5 mph85%29.99 "Hg10 mi
1:53 AM75 °FClear.7 mph85%29.99 "Hg10 mi
12:53 AM76 °FClear.7 mph82%30.00 "Hg10 mi
11:53 PM
Thu, Jun 30
76 °FClear.6 mph77%30.01 "Hg10 mi
10:53 PM77 °FClear.3 mph71%30.00 "Hg10 mi
9:53 PM77 °FClear.9 mph69%29.98 "Hg10 mi
8:53 PM80 °FMostly cloudy.12 mph71%30.01 "Hg10 mi
7:53 PM81 °FPassing clouds.10 mph69%29.99 "Hg10 mi
7:02 PM82 °FPartly sunny.10 mph60%30.01 "Hg10 mi
6:53 PM84 °FThundershowers. Broken clouds.10 mph65%29.98 "Hg10 mi
5:53 PM87 °FThunderstorms. Sunny.15 mph51%29.94 "Hg10 mi
4:53 PM91 °FPassing clouds.15 mph54%29.93 "Hg10 mi
3:53 PM93 °FSunny.7 mph46%29.92 "Hg10 mi
2:53 PM92 °FScattered clouds.3 mph47%29.93 "Hg10 mi
1:53 PM91 °FBroken clouds.10 mph50%29.96 "Hg10 mi
12:53 PM89 °FPartly sunny.6 mph55%29.98 "Hg10 mi
11:53 AM88 °FSunny.6 mph57%29.98 "Hg10 mi
10:53 AM85 °FSunny.No wind63%29.98 "Hg10 mi
9:53 AM82 °FSunny.3 mph70%29.98 "Hg10 mi
8:53 AM77 °FSunny.3 mph79%29.99 "Hg10 mi
7:53 AM74 °FSunny.5 mph85%29.98 "Hg10 mi
6:53 AM73 °FClear.3 mph88%29.97 "Hg10 mi
Weather by CustomWeather, © 2016

See weather overviewHow to use our weather pages